{"data":{"norad_id":62603,"intl_designator":"2025-008S","name":"STARLINK-32778","alt_names":[],"object_type":"PAYLOAD","status":"ACTIVE","operator":null,"country":"US","launch_date":"2025-01-13","launch_site_code":"AFETR","launch_vehicle":null,"mission":null,"orbit_class":"UNKNOWN","rcs_meters":null,"size_class":null,"mass_kg":null,"dimensions":null,"purposes":["comms"],"wikipedia_slug":null,"has_3d_model":false,"image_url":null,"decayed_at":null,"tle_current":{"epoch":"2026-05-25T05:21:33.641856Z","epoch_age_seconds":59362,"freshness":"FRESH","line1":"1 62603U 25008S   26145.22330604  .00015619  00000+0  57571-3 0  9999","line2":"2 62603  43.0021 206.1868 0001370 262.8374  97.2322 15.27590831 77261","mean_motion":15.27590831,"eccentricity":0.000137,"inclination_deg":43.0021,"raan_deg":206.1868,"arg_perigee_deg":262.8374,"mean_anomaly_deg":97.2322,"bstar":0.00057571,"rev_number":7726,"period_min":94.266080338891,"perigee_km":482.07668626883,"apogee_km":483.95664237286,"semimajor_km":6861.1536643208,"source":"CELESTRAK","updated_at":"2026-05-25T13:38:19.736585Z"}}}